Preview of NWS' New Version of Forecast
This preview is not operational and should not be used for support decisions.
Latest weather observations around

Memphis International Airport (KMEM)

Using English Units (Switch to International System of Units)
Date/ Time (CDT) Wind (mph) Vis. (mi) Weather Sky Cond. Temp (°F) Rel. Humidity Wind Chill (°F) Heat Index (°F) Pressure Precip. (in)
Air Dwpt 6 hour Altimeter (inHg) Sea level (inHg) 1 hr 3 hr 6 hr
Max Min
Aug 22 01:54 SSW 8 10 Clear CLR 80 74     82%   85 29.98 29.96      
Aug 22 00:54 S 8 10 Clear CLR 81 74     79%   86 29.97 29.96      
Aug 21 23:54 S 7 10 Clear CLR 82 73     74%   87 29.97 29.95      
Aug 21 22:54 S 7 10 Clear CLR 82 73     74%   87 29.99 29.98      
Aug 21 21:54 SE 5 10 Clear CLR 85 72     65%   91 30.01 29.99      
Aug 21 20:54 SSW 5 10 Mostly Clear FEW190 84 72     67%   90 30 29.99      
Aug 21 19:54 S 6 10 Partly Cloudy FEW050 SCT160 87 73     63%   95 29.99 29.98      
Aug 21 18:54 Calm 10 Mostly Cloudy SCT050 BKN070 BKN110 89 73     59%   97 29.97 29.96 0   0
Aug 21 18:44 SE 6 8 Light Rain BKN050 BKN070 90 74     59%   99 29.97   0    
Aug 21 18:27 SSW 7 10 Thunderstorms BKN050 91 74     57%   101 29.97        
Aug 21 17:54 ESE 5 10 Partly Cloudy SCT048 93 72     51%   101 29.97 29.96      
Aug 21 16:54 SSE 5 10 Partly Cloudy SCT048 SCT250 93 73     52%   102 29.96 29.94      
Aug 21 15:54 5 10 Partly Cloudy SCT045 SCT250 94 74     53%   104 29.98 29.96      
Aug 21 14:54 W 6 10 Mostly Cloudy SCT042 BKN060 BKN250 91 74     57%   101 30.02 30      
Aug 21 13:54 WSW 8 10 Mostly Cloudy SCT042 BKN060 BKN250 92 76     60%   104 30.04 30.03      
Aug 21 12:54 W 8 10 Mostly Cloudy SCT040 BKN190 BKN250 92 74     56%   102 30.05 30.03      
Aug 21 11:54 WSW 6 10 Mostly Cloudy FEW030 SCT190 BKN250 90 75     62%   101 30.08 30.06      
Aug 21 10:54 WNW 7 10 Mostly Cloudy FEW190 BKN250 89 76     65%   100 30.09 30.07      
Aug 21 09:54 SSW 7 10 Mostly Cloudy FEW190 BKN250 85 76     75%   94 30.08 30.07      
Aug 21 08:54 S 6 10 Mostly Cloudy FEW190 BKN250 81 75     82%   87 30.07 30.06      
Aug 21 07:54 S 5 10 Mostly Cloudy SCT190 BKN250 78 73     85%   80 30.06 30.04      
Aug 21 06:54 SE 5 10 Mostly Cloudy BKN190 BKN250 76 72     88%   77 30.04 30.02      
Aug 21 05:54 E 5 10 Mostly Cloudy BKN190 BKN250 76 71     85%   77 30.02 30      
Aug 21 04:54 N 5 10 Mostly Cloudy SCT190 BKN250 76 71     85%   77 30.02 30.01      
Aug 21 03:54 6 10 Mostly Cloudy SCT180 BKN250 77 71     82%   78 30.02 30.01      
Aug 21 02:54 3 10 Mostly Cloudy SCT180 BKN250 78 71     79%   79 30.01 29.99      
Aug 21 01:54 SE 3 10 Mostly Cloudy SCT021 BKN250 77 70     79%   78 29.99 29.97      
Aug 21 00:54 S 7 10 Mostly Cloudy SCT021 BKN250 76 70     82%   77 29.98 29.96     0
Aug 20 23:54 S 14 10 Mostly Cloudy SCT018 BKN250 76 71     85%   77 29.99 29.97      
Aug 20 22:54 SSW 5 10 Mostly Cloudy SCT150 BKN250 76 71     85%   77 30.06 30.05      
Aug 20 21:54 ENE 9 10 Mostly Cloudy FEW065 SCT080 BKN140 76 71     85%   77 30.11 30.1 0 0  
Aug 20 21:39   10 Cloudy FEW011 BKN060 OVC085 77 72     84%   78 30.12   0    
Aug 20 21:19 NE 13 10 Light Rain SCT013 BKN022 OVC055 78 72     82%   79 30.13   0    
Aug 20 21:11 E 13 10 Thunderstorms and Rain SCT013 BKN022 OVC033 79 73     82%   82 30.14   0    
Aug 20 20:54   9 Thunderstorms SCT022 BKN033 OVC040 81 71     72%   85 30.14        
Aug 20 20:41   10 Thunderstorms FEW025 BKN033 OVC055 82 71     69%   86 30.13        
Aug 20 20:34   10 Mostly Cloudy BKN033 BKN055 82 72     72%   87 30.11        
Aug 20 19:54 W 5 10 Partly Cloudy FEW048 SCT250 87 73     63%   95 30.06 30.05      
Aug 20 18:54 W 5 10 Partly Cloudy FEW048 SCT250 91 74     57%   101 30.04 30.02      
Aug 20 17:54 WSW 7 10 Partly Cloudy FEW048 SCT250 92 73     54%   101 30.01 30      
Aug 20 16:54 6 10 Partly Cloudy FEW048 SCT250 93 71     49%   100 30 29.98      
Aug 20 15:54 SSW 9 10 Partly Cloudy FEW048 SCT250 94 74     53%   104 30.01 29.99      
Aug 20 14:54 3 10 Partly Cloudy FEW050 SCT250 93 72     51%   101 30.04 30.02      
Aug 20 13:54 S 7 10 Partly Cloudy FEW050 SCT250 94 74     53%   104 30.06 30.04      
Aug 20 12:54 S 5 10 Partly Cloudy SCT040 SCT250 93 73     52%   102 30.07 30.05      
Aug 20 11:54 6 10 Partly Cloudy SCT030 SCT250 92 76     60%   104 30.09 30.07      
Aug 20 10:54 3 10 Partly Cloudy FEW027 SCT250 90 75     62%   101 30.1 30.08      
Aug 20 09:54 5 10 Mostly Clear FEW250 88 76     68%   99 30.09 30.07      
Aug 20 08:54 Calm 10 Clear CLR 84 77     80%   94 30.07 30.05      
Aug 20 07:54 Calm 10 Clear CLR 79 76     90%   83 30.05 30.03      
Aug 20 06:54 S 8 10 Clear CLR 76 75     97%   78 30.05 30.03      
Aug 20 05:54 SSW 5 10 Clear CLR 76 74     94%   78 30.05 30.03      
Aug 20 04:54 SE 5 10 Clear CLR 78 74     87%   80 30.04 30.03      
Aug 20 03:54 SSW 5 10 Clear CLR 78 74     87%   80 30.04 30.02      
Aug 20 02:54 S 5 10 Clear CLR 78 74     87%   80 30.03 30.01      
Aug 20 01:54 SSW 5 10 Clear CLR 79 75     88%   83 30.02 30.01      
Aug 20 00:54 SW 5 10 Clear   81 76     85%   87 30.03 30.01      
Aug 19 23:54 SSW 11 10 Clear CLR 83 76     79%   91 30.04 30.02      
Aug 19 22:54 Calm 10 Clear CLR 84 75     74%   92 30.04 30.03      
Aug 19 21:54 SSE 5 10 Mostly Clear FEW250 86 75     70%   95 30.02 30.01      
Aug 19 20:54 SSE 6 10 Mostly Cloudy FEW045 BKN250 88 75     66%   98 30.01 29.99      
Aug 19 19:54 SSE 5 10 Mostly Cloudy SCT047 BKN250 89 75     63%   99 29.99 29.98      
Aug 19 18:54 SE 7 10 Mostly Cloudy FEW048 BKN250 92 74     56%   102 29.97 29.96      
Aug 19 17:54 ENE 6 10 Mostly Cloudy SCT047 BKN250 93 74     54%   103 29.97 29.96      
Aug 19 16:54 ESE 6 10 Mostly Cloudy FEW047 SCT065 BKN250 94 74     53%   104 29.97 29.96      
Aug 19 15:54 E 6 10 Mostly Cloudy BKN047 BKN065 BKN090 94 75     54%   106 29.98 29.96      
Aug 19 14:54 5 10 Mostly Cloudy BKN044 BKN090 BKN250 92 75     58%   103 29.99 29.98      
Aug 19 13:54 SW 3 10 Mostly Cloudy SCT039 BKN048 BKN250 92 75     58%   103 30.02 30      
Aug 19 12:54 Calm 10 Mostly Cloudy BKN040 BKN250 91 75     60%   102 30.03 30.02      
Aug 19 11:54 3 10 Partly Cloudy FEW035 SCT250 90 77     66%   103 30.04 30.03      
Aug 19 10:54 Calm 10 Clear CLR 88 77     70%   100 30.05 30.03      
Aug 19 09:54 3 10 Clear CLR 86 76     72%   96 30.05 30.03      
Aug 19 08:54 S 5 10 Mostly Clear FEW044 81 75     82%   87 30.04 30.03      
Aug 19 07:54 S 6 10 Mostly Clear FEW044 78 75     90%   80 30.04 30.03      
Aug 19 06:54 SE 5 10 Mostly Clear FEW035 76 74     94%   78 30.03 30.01      
Aug 19 05:54 ESE 3 10 Clear CLR 76 74     94%   78 30 29.99      
Aug 19 04:54 S 3 10 Clear CLR 75 74     96%   77 29.98 29.96      
Aug 19 03:54 Calm 10 Clear CLR 75 74     96%   77 29.97 29.95      
Aug 19 02:54 SSW 3 10 Clear CLR 76 74     94%   78 29.96 29.95      
May 14 11:54 SSW 8 10 Partly Cloudy FEW040 SCT250 89 70     53%   94 30.03 30.01      
May 14 10:54 6 10 Mostly Clear FEW040 FEW250 87 70     57%   92 30.03 30.02      
Notice The following observation data may not be complete
May 14 06:54   10 Mostly Clear FEW250          %              
May 13 21:54 S 8 10 Clear CLR 80 66     62%   82 30.02 30.01      
May 12 23:54 S 7 10 Mostly Clear FEW250 72 62     71%   72 30.03 30.02      
May 12 19:54 SSE 8 10 Mostly Cloudy BKN250 82 62     51%   83 30.02 30.01      
May 12 17:54 S 11 10 Mostly Cloudy FEW060 BKN250 86 61     43%   86 30.03 30.02      
May 12 08:54 SSW 11 10 Partly Cloudy SCT250 78 66     67%   79 30.11 30.1      
May 11 21:54 S 13 10 Mostly Clear FEW200 78 59     52%   78 29.97 29.96      
Jun 11 16:54 S 16 10 Partly Cloudy SCT060 89 66     47%   92 30.02 30.01      
Jun 10 07:54 SSW 7 10 Mostly Clear FEW250 72 63     73%   72 30.02 30.01      
Jun 10 03:54 S 7 10 Partly Cloudy SCT050 67 60     79%     29.95 29.94      
Jun 09 23:54 S 6 10 Mostly Clear FEW250 68 59     73%     29.96 29.95      
Jun 09 20:54 SW 3 10 Mostly Clear FEW250 75 57     54%   75 29.92 29.91      
Jun 09 17:54 S 6 10 Mostly Clear FEW060 FEW250 81 55     41%   81 29.92 29.91      
Jun 09 04:54 Calm 10 Clear CLR 63 55     75%     29.94 29.93      
Jun 08 16:54 NNW 8 10 Partly Cloudy FEW055 SCT250 80 54     41%   80 29.92 29.91      
Jun 08 02:54 NNE 7 10 Mostly Clear FEW250 67 54     63%     29.95 29.93      
Jun 07 14:54 NE 15 10 Partly Cloudy FEW050 SCT250 83 52     34%   82 29.93 29.92      
Jun 07 14:37 NNE 13 10 Mostly Cloudy FEW050 BKN250 83 53     36%   82 29.93        
Jun 07 10:54 NE 13 10 Mostly Clear FEW250 79 54     42%   79 29.97 29.95      
Jun 05 21:54 Calm 10 Clear   72 72     100%   74 29.79 29.78   0  
Jun 05 17:54 SSW 8 3 Thunderstorms and Rain and Fog/Mist FEW013 BKN028 OVC050 73 72     96%   75 29.75 29.74 0    
Jun 05 15:22 Calm 10 Cloudy BKN033 OVC250 84 70     63%   88 29.75